Benson, United Kingdom

7:13 PM GMT on February 22, 2017 (GMT +0000)
Benson Air Base

Weather History for EGUB - July, 2013

Change the Weather History Date:

Thursday, July 25, 2013

  Actual Average Record
Temperature  
Mean Temperature 69 °F -  
Max Temperature 78 °F 69 °F 87 °F (2006)
Min Temperature 59 °F 52 °F 41 °F (2011)
Cooling Degree Days 4    
Growing Degree Days 19 (Base 50)    
Moisture  
Dew Point 59 °F    
Average Humidity 79    
Maximum Humidity 100    
Minimum Humidity 35    
Precipitation  
Precipitation 0.00 in - - ()
Sea Level Pressure  
Sea Level Pressure 29.89 in    
Wind  
Wind Speed 7 mph ()    
Max Wind Speed 15 mph    
Max Gust Speed -    
Visibility 7.0 miles    
Events Rain    
Averages and records for this station are not official NWS values.
T = Trace of Precipitation, MM = Missing Value Source: Averaged Metar Reports

Daily Weather History Graph

Daily Weather History Graph

Search for Another Location

Airport or City:

Trip Planner

Search our weather history database for the weather conditions in past years. The results will help you decide how hot, cold, wet, or windy it might be!

Date:

Astronomy

Jul. 25, 2013 Rise Set
Actual Time 5:17 AM BST 9:03 PM BST
Civil Twilight 4:34 AM BST 9:45 PM BST
Nautical Twilight 3:36 AM BST 10:43 PM BST
Astronomical Twilight 1:57 AM BST 12:18 AM BST
Moon 10:00 PM BST (7/25) 9:00 AM BST (7/25)
Length of Visible Light 17h 10m
Length of Day
15h 45m
Waning Gibbous, 90% of the Moon is Illuminated
Jul 25
Waning Gibbous
Jul 29
Last Quarter
Aug 6
New
Aug 14
First Quarter
Aug 21
Full

Hourly Weather History & Observations

Time (BST) Temp. Dew Point Humidity Pressure Visibility Wind Dir Wind Speed Gust Speed Precip Events Conditions
12:50 AM 64 °F 58 °F 75% 29.94 in 12 mi South 8.1 mph - -   Overcast
12:50 AM 64.4 °F 59.0 °F 83% 29.92 in 6.2 mi South 8.1 mph - N/A   Mostly Cloudy
1:50 AM 62.6 °F 60.8 °F 94% 29.92 in 6.2 mi SSE 2.3 mph - N/A Rain Light Rain
2:50 AM 62.6 °F 60.8 °F 94% 29.92 in 6.2 mi ESE 2.3 mph - N/A   Mostly Cloudy
3:50 AM 62 °F 61 °F 95% 29.91 in 2 mi South 1.2 mph - -   Mostly Cloudy
3:50 AM 62.6 °F 60.8 °F 94% 29.89 in - South 1.2 mph - N/A   Mostly Cloudy
4:34 AM 62.6 °F 60.8 °F 94% 29.89 in 3.1 mi ESE 4.6 mph - N/A Rain Rain
4:50 AM 62.6 °F 60.8 °F 94% 29.89 in 3.1 mi SSE 5.8 mph - N/A Rain Rain
5:19 AM 60.8 °F 60.8 °F 100% 29.89 in 2.8 mi SSE 4.6 mph - N/A Rain Rain
5:50 AM 62.6 °F 60.8 °F 94% 29.89 in 6.2 mi ESE 5.8 mph - N/A   Scattered Clouds
6:28 AM 62.6 °F 60.8 °F 94% 29.89 in 6.2 mi SE 9.2 mph - N/A   Mostly Cloudy
6:50 AM 63 °F 61 °F 89% 29.88 in 7 mi SE 9.2 mph - -   Partly Cloudy
6:50 AM 62.6 °F 60.8 °F 94% 29.86 in 6.2 mi SE 9.2 mph - N/A   Mostly Cloudy
7:50 AM 62.6 °F 60.8 °F 94% 29.89 in 5.0 mi SSE 10.4 mph - N/A   Haze
8:50 AM 64.4 °F 62.6 °F 94% 29.89 in 6.2 mi South 8.1 mph - N/A   Mostly Cloudy
9:50 AM 66 °F 63 °F 87% 29.89 in 9 mi South 6.9 mph - -   Overcast
9:50 AM 66.2 °F 62.6 °F 88% 29.89 in 6.2 mi South 6.9 mph - N/A   Mostly Cloudy
10:50 AM 66.2 °F 62.6 °F 88% 29.89 in 6.2 mi SSW 8.1 mph - N/A   Mostly Cloudy
11:21 AM 66.2 °F 62.6 °F 88% 29.89 in 6.2 mi SSW 8.1 mph - N/A   Mostly Cloudy
11:50 AM 68.0 °F 62.6 °F 83% 29.89 in 6.2 mi SSW 6.9 mph - N/A   Mostly Cloudy
12:50 PM 72 °F 63 °F 65% 29.88 in 16 mi South 9.2 mph - -   Mostly Cloudy
12:50 PM 71.6 °F 62.6 °F 73% 29.86 in 6.2 mi South 9.2 mph - N/A   Mostly Cloudy
1:50 PM 75.2 °F 57.2 °F 53% 29.89 in 6.2 mi SSW 13.8 mph - N/A   Scattered Clouds
2:50 PM 78.8 °F 57.2 °F 47% 29.86 in 6.2 mi SSW 15.0 mph - N/A   Scattered Clouds
3:50 PM 77 °F 54 °F 35% 29.87 in 19 mi SSW 12.7 mph - -   Partly Cloudy
3:50 PM 77.0 °F 55.4 °F 47% 29.86 in 6.2 mi SSW 12.7 mph - N/A   Partly Cloudy
4:50 PM 77.0 °F 57.2 °F 50% 29.86 in 6.2 mi South 15.0 mph - N/A   Partly Cloudy
5:50 PM 75.2 °F 55.4 °F 50% 29.86 in 6.2 mi SSW 11.5 mph - N/A   Scattered Clouds
6:50 PM 73.4 °F 57.2 °F 57% 29.89 in 6.2 mi SW 10.4 mph - N/A   Mostly Cloudy
7:50 PM 69.8 °F 57.2 °F 64% 29.89 in 6.2 mi SSW 10.4 mph - N/A   Unknown
8:50 PM 66.2 °F 57.2 °F 73% 29.89 in 6.2 mi South 6.9 mph - N/A   Unknown
9:50 PM 61 °F 56 °F 80% 29.92 in 16 mi South 6.9 mph - -  
9:50 PM 60.8 °F 57.2 °F 88% 29.92 in 6.2 mi South 6.9 mph - N/A   Unknown
10:50 PM 60.8 °F 55.4 °F 82% 29.92 in 6.2 mi SSE 6.9 mph - N/A   Unknown
11:50 PM 59.0 °F 55.4 °F 88% 29.92 in 6.2 mi South 3.5 mph - N/A   Unknown